"2009-08-16 00:00:00",1155169,5.95,21.51,1.301,0.326,20.38,109.1251,22.65,23.74,33.98,0,111.1,13.14,23.48,343.5
"2009-08-16 00:00:30",1155170,5.568,20.96,1.402,0.304,20.43,109.1195,22.63,23.71,33.79,0,111.1,13.14,23.46,343.0
"2009-08-16 00:01:00",1155171,5.634,19.75,1.606,0.402,20.33,109.1031,22.59,23.68,33.91,0,111.1,13.14,23.42,341.8
"2009-08-16 00:01:30",1155172,5.847,19.33,1.111,0.338,20.3,109.0949,22.57,23.67,34.21,0,111,13.14,23.40,341.3
"2009-08-16 00:02:00",1155173,6.155,18.39,1.412,0.52,20.18,109.0945,22.57,23.64,34.58,0,111,13.14,23.40,340.4
"2009-08-16 00:02:30",1155174,5.665,17.42,2.597,0.774,20.23,109.0736,22.52,23.61,34.79,0,111,13.14,23.35,339.4
"2009-08-16 00:03:00",1155175,5.753,16.54,2.93,0.411,20.15,109.0664,22.5,23.59,34.84,0,111,13.14,23.33,338.5
"2009-08-16 00:03:30",1155176,5.322,16.45,1.67,0.317,20.16,109.0571,22.47,23.56,34.96,0,111,13.14,23.30,338.5
"2009-08-16 00:04:00",1155177,5.193,15.71,1.976,0.311,20.1,109.0347,22.42,23.54,35.01,0,111,13.14,23.25,337.7
"2009-08-16 00:04:30",1155178,5.46,15.94,1.846,0.393,20.05,109.0288,22.4,23.51,35.15,0,111,13.14,23.23,337.9
"2009-08-16 00:05:00",1155179,5.108,13.69,2.854,0.47,20.02,109.0023,22.33,23.48,35.4,0,111,13.15,23.16,335.7
"2009-08-16 00:05:30",1155180,5.122,11.41,2.975,0.393,20.04,108.9948,22.31,23.45,35.51,0,111,13.15,23.14,333.4
"2009-08-16 00:06:00",1155181,5.287,13.25,2.094,0.47,20.01,108.9701,22.25,23.41,35.86,0,111,13.15,23.08,335.2
"2009-08-16 00:06:30",1155182,6.043,16.89,1.528,0.495,20.02,108.9622,22.23,23.37,35.99,0,111,13.15,23.06,338.9
"2009-08-16 00:07:00",1155183,6.454,17.86,0.851,0.322,20.03,108.9366,22.16,23.34,36.04,0,111,13.15,22.99,339.9
"2009-08-16 00:07:30",1155184,7.013,18.43,1.139,0.366,20.01,108.9316,22.15,23.31,36.25,0,111,13.15,22.98,340.4
"2009-08-16 00:08:00",1155185,7.189,18.17,1.114,0.404,19.99,108.9117,22.1,23.27,36.47,0,111,13.15,22.93,340.2
"2009-08-16 00:08:30",1155186,7.454,18.11,0.773,0.281,19.97,108.9067,22.09,23.23,36.47,0,111,13.15,22.92,340.1
"2009-08-16 00:09:00",1155187,7.657,18.77,0.753,0.303,19.97,108.9008,22.07,23.21,36.31,0,111,13.15,22.90,340.8
"2009-08-16 00:09:30",1155188,7.681,18.87,0.846,0.279,19.97,108.8892,22.04,23.17,36.31,0,111,13.16,22.87,340.9
"2009-08-16 00:10:00",1155189,7.051,17.84,0.734,0.246,19.97,108.8832,22.03,23.14,36.51,0,111,13.16,22.86,339.8
"2009-08-16 00:10:30",1155190,6.9,17.25,1.11,0.312,19.92,108.8619,21.97,23.12,36.71,0,111,13.16,22.80,339.2
"2009-08-16 00:11:00",1155191,6.86,16.34,2.029,0.511,19.88,108.8562,21.96,23.08,37.17,0,111,13.16,22.79,338.3
"2009-08-16 00:11:30",1155192,6.537,13.72,2.782,0.521,19.82,108.8342,21.9,23.04,37.57,0,111,13.16,22.73,335.7
"2009-08-16 00:12:00",1155193,6.533,8.31,3.052,0.585,19.76,108.8299,21.89,23.01,38.13,0,111,13.16,22.72,330.3
"2009-08-16 00:12:30",1155194,6.566,7.085,2.511,0.414,19.77,108.8051,21.83,22.98,38.11,0,111,13.16,22.65,329.1
"2009-08-16 00:13:00",1155195,6.344,9.06,2.292,0.437,19.83,108.7905,21.79,22.95,38.03,0,111,13.16,22.62,331.1
"2009-08-16 00:13:30",1155196,6.653,8.72,2.239,0.26,19.87,108.7669,21.73,22.89,37.9,0,111,13.16,22.56,330.7
"2009-08-16 00:14:00",1155197,6.43,9.35,2.015,0.282,19.87,108.7511,21.69,22.84,37.91,0,111,13.16,22.51,331.4
"2009-08-16 00:14:30",1155198,6.472,9.04,2.363,0.345,19.86,108.7323,21.64,22.81,37.91,0,111,13.16,22.47,331.0
"2009-08-16 00:15:00",1155199,6.651,9.99,2.294,0.584,19.83,108.7182,21.6,22.76,37.98,0,111,13.16,22.43,332.0
"2009-08-16 00:15:30",1155200,6.057,10.28,2.386,0.504,19.87,108.6991,21.55,22.74,38.08,0,111,13.16,22.38,332.3
"2009-08-16 00:16:00",1155201,6.468,12.47,2.796,0.393,19.94,108.693,21.54,22.7,38.17,0,111,13.16,22.37,334.5
"2009-08-16 00:16:30",1155202,6.866,16.06,1.576,0.209,19.93,108.668,21.47,22.66,38.23,0,111,13.16,22.30,338.1
"2009-08-16 00:17:00",1155203,6.545,14.29,1.803,0.226,19.95,108.6658,21.47,22.64,38.29,0,110.9,13.16,22.30,336.3
"2009-08-16 00:17:30",1155204,6.659,16.78,1.806,0.23,19.95,108.6596,21.45,22.59,38.35,0,111,13.16,22.28,338.8
"2009-08-16 00:18:00",1155205,6.814,17.98,0.904,0.23,19.93,108.6382,21.4,22.57,38.36,0,110.9,13.16,22.22,340.0
"2009-08-16 00:18:30",1155206,6.748,18.08,0.851,0.284,19.95,108.6345,21.39,22.54,38.35,0,110.9,13.16,22.21,340.1
"2009-08-16 00:19:00",1155207,6.883,18.84,1.041,0.248,19.89,108.637,21.39,22.51,38.35,0,110.9,13.16,22.22,340.8
"2009-08-16 00:19:30",1155208,7.234,19.53,0.859,0.284,19.8,108.6362,21.39,22.49,38.36,0,110.9,13.16,22.22,341.5
"2009-08-16 00:20:00",1155209,6.774,18.99,0.912,0.267,19.8,108.6402,21.4,22.49,38.29,0,110.9,13.16,22.23,341.0
"2009-08-16 00:20:30",1155210,7.248,19.7,0.746,0.206,19.68,108.6282,21.37,22.47,38.28,0,110.9,13.16,22.20,341.7
"2009-08-16 00:21:00",1155211,7.38,19.81,0.812,0.182,19.67,108.6331,21.38,22.44,38.35,0,110.9,13.16,22.21,341.8
"2009-08-16 00:21:30",1155212,7.403,20.43,1.024,0.222,19.65,108.6352,21.39,22.45,38.37,0,110.9,13.16,22.22,342.4
"2009-08-16 00:22:00",1155213,7.409,20.05,0.838,0.223,19.68,108.6432,21.41,22.43,38.33,0,110.9,13.16,22.24,342.0
"2009-08-16 00:22:30",1155214,7.614,20.46,0.476,0.223,19.68,108.6519,21.43,22.43,38.33,0,110.9,13.16,22.26,342.5
"2009-08-16 00:23:00",1155215,7.697,20.8,0.78,0.258,19.65,108.6561,21.44,22.45,38.33,0,110.9,13.17,22.27,342.8
"2009-08-16 00:23:30",1155216,7.665,21.12,0.725,0.24,19.68,108.6586,21.45,22.44,38.28,0,110.9,13.17,22.28,343.1
"2009-08-16 00:24:00",1155217,7.795,21.5,0.692,0.206,19.68,108.6608,21.46,22.44,38.19,0,110.9,13.17,22.28,343.5
"2009-08-16 00:24:30",1155218,7.861,21.35,0.722,0.193,19.68,108.6617,21.46,22.45,38.12,0,110.9,13.17,22.28,343.4
"2009-08-16 00:25:00",1155219,8.13,20.98,0.911,0.222,19.63,108.6669,21.47,22.46,38.03,0,110.9,13.17,22.30,343.0
"2009-08-16 00:25:30",1155220,8.16,20.51,0.672,0.14,19.62,108.678,21.5,22.47,37.95,0,110.9,13.17,22.33,342.5
"2009-08-16 00:26:00",1155221,8.25,19.76,0.404,0.212,19.63,108.6975,21.55,22.49,37.91,0,110.9,13.17,22.38,341.8
"2009-08-16 00:26:30",1155222,8.36,20.02,0.566,0.167,19.59,108.7015,21.56,22.51,37.88,0,110.9,13.17,22.39,342.0
"2009-08-16 00:27:00",1155223,8.25,20.11,0.601,0.199,19.57,108.7015,21.56,22.52,37.81,0,110.9,13.17,22.39,342.1
"2009-08-16 00:27:30",1155224,8.49,19.56,0.41,0.371,19.53,108.7015,21.56,22.52,37.78,0,110.9,13.17,22.39,341.6
"2009-08-16 00:28:00",1155225,8.95,19.91,0.871,0.209,19.44,108.7066,21.57,22.53,37.69,0,110.9,13.17,22.40,341.9
"2009-08-16 00:28:30",1155226,8.83,19.68,0.862,0.247,19.42,108.7142,21.59,22.56,37.54,0,110.9,13.17,22.42,341.7
"2009-08-16 00:29:00",1155227,8.61,19.81,0.973,0.286,19.37,108.7319,21.64,22.57,37.58,0,110.9,13.17,22.47,341.8
"2009-08-16 00:29:30",1155228,8.16,18.82,0.68,0.21,19.41,108.7352,21.65,22.58,37.45,0,110.9,13.17,22.47,340.8
"2009-08-16 00:30:00",1155229,8.23,19.39,0.891,0.297,19.34,108.7352,21.65,22.59,37.76,0,110.9,13.17,22.47,341.4
"2009-08-16 00:30:30",1155230,7.368,19.01,0.992,0.368,19.59,108.7352,21.65,22.6,37.55,0,110.9,13.17,22.47,341.0
"2009-08-16 00:31:00",1155231,7.259,19.49,0.86,0.226,19.63,108.7352,21.65,22.62,37.36,0,110.9,13.17,22.47,341.5
"2009-08-16 00:31:30",1155232,7.13,20.1,1.882,0.277,19.63,108.7352,21.65,22.62,37.24,0,110.9,13.17,22.47,342.1
"2009-08-16 00:32:00",1155233,6.609,19.12,1.73,0.162,19.7,108.7355,21.65,22.63,37.56,0,110.9,13.17,22.47,341.1
"2009-08-16 00:32:30",1155234,7.068,20.84,1.357,0.293,19.57,108.7369,21.65,22.64,37.17,0,110.9,13.17,22.48,342.8
"2009-08-16 00:33:00",1155235,6.721,21.72,1.01,0.181,19.76,108.7395,21.66,22.65,37.07,0,110.9,13.17,22.48,343.7
"2009-08-16 00:33:30",1155236,6.381,24.08,0.984,0.234,19.72,108.7434,21.67,22.66,36.98,0,110.9,13.17,22.49,346.1
"2009-08-16 00:34:00",1155237,6.169,24.69,0.773,0.209,19.73,108.7445,21.67,22.67,36.91,0,110.9,13.17,22.50,346.7
"2009-08-16 00:34:30",1155238,5.876,25.63,0.929,0.166,19.71,108.7454,21.67,22.68,36.82,0,111,13.17,22.50,347.6
"2009-08-16 00:35:00",1155239,5.716,26.64,1.265,0.174,19.65,108.7476,21.68,22.68,36.83,0,110.9,13.17,22.51,348.6
"2009-08-16 00:35:30",1155240,5.672,27.24,0.841,0.106,19.56,108.7484,21.68,22.7,36.99,0,110.9,13.17,22.51,349.2
"2009-08-16 00:36:00",1155241,5.806,27.08,0.925,0.175,19.5,108.7454,21.67,22.68,37.04,0,110.9,13.17,22.50,349.1
"2009-08-16 00:36:30",1155242,6.04,26.24,0.788,0.167,19.46,108.7442,21.67,22.7,37.07,0,110.9,13.17,22.50,348.2
"2009-08-16 00:37:00",1155243,5.921,26.64,1.206,0.171,19.43,108.7429,21.67,22.68,37.07,0,110.9,13.17,22.49,348.6
"2009-08-16 00:37:30",1155244,5.784,27.59,1.157,0.142,19.41,108.7412,21.66,22.68,36.98,0,110.9,13.17,22.49,349.6
"2009-08-16 00:38:00",1155245,5.819,27.17,0.814,0.148,19.38,108.7367,21.65,22.68,36.88,0,110.9,13.17,22.48,349.2
"2009-08-16 00:38:30",1155246,5.933,26.35,0.857,0.189,19.44,108.7362,21.65,22.67,36.94,0,110.9,13.17,22.48,348.4
"2009-08-16 00:39:00",1155247,5.839,27.47,0.812,0.151,19.49,108.7359,21.65,22.68,36.91,0,111,13.17,22.48,349.5
"2009-08-16 00:39:30",1155248,5.763,28.83,1.002,0.131,19.46,108.7355,21.65,22.67,37.01,0,110.9,13.17,22.47,350.8
"2009-08-16 00:40:00",1155249,5.725,28.42,1.22,0.111,19.59,108.7224,21.61,22.66,37.05,0,111,13.18,22.44,350.4
"2009-08-16 00:40:30",1155250,5.526,28.84,0.914,0.104,19.71,108.7039,21.57,22.65,36.97,0,110.9,13.18,22.39,350.8
"2009-08-16 00:41:00",1155251,5.55,28.94,1.222,0.108,19.71,108.7028,21.56,22.63,37.04,0,110.9,13.18,22.39,350.9
"2009-08-16 00:41:30",1155252,5.656,30.47,0.901,0.126,19.79,108.6872,21.52,22.61,37.03,0,110.9,13.18,22.35,352.5
"2009-08-16 00:42:00",1155253,5.83,30.86,0.992,0.198,19.8,108.6715,21.48,22.59,37.1,0,110.9,13.18,22.31,352.9
"2009-08-16 00:42:30",1155254,5.942,31.01,0.966,0.144,19.8,108.6698,21.48,22.56,37.19,0,110.9,13.18,22.31,353.0
"2009-08-16 00:43:00",1155255,6.608,31.67,0.934,0.405,19.7,108.6467,21.42,22.53,37.41,0,111,13.18,22.25,353.7
"2009-08-16 00:43:30",1155256,6.715,31.81,0.908,0.234,19.71,108.6423,21.41,22.51,37.51,0,110.9,13.18,22.23,353.8
"2009-08-16 00:44:00",1155257,6.502,31.81,0.943,0.312,19.72,108.6244,21.36,22.49,37.58,0,110.9,13.18,22.19,353.8
"2009-08-16 00:44:30",1155258,5.829,30.45,1.028,0.411,19.78,108.618,21.35,22.46,37.62,0,110.9,13.18,22.17,352.5
"2009-08-16 00:45:00",1155259,6.296,30.76,1.608,0.29,19.76,108.6102,21.33,22.42,37.65,0,110.9,13.18,22.15,352.8
"2009-08-16 00:45:30",1155260,6.117,31.15,1.106,0.444,19.8,108.5894,21.27,22.38,37.72,0,110.9,13.18,22.10,353.1
"2009-08-16 00:46:00",1155261,6.621,31.61,0.956,0.409,19.74,108.5881,21.27,22.36,37.85,0,110.9,13.18,22.09,353.6
"2009-08-16 00:46:30",1155262,7.11,32.63,1.135,0.628,19.74,108.5638,21.21,22.32,37.98,0,110.9,13.18,22.03,354.6
"2009-08-16 00:47:00",1155263,7.089,32.6,1.1,0.441,19.82,108.5597,21.2,22.28,37.97,0,110.9,13.19,22.02,354.6
"2009-08-16 00:47:30",1155264,7.683,33.29,0.954,0.365,19.76,108.5474,21.16,22.27,38.09,0,110.9,13.19,21.99,355.3
"2009-08-16 00:48:00",1155265,6.776,31.82,0.771,0.212,19.73,108.5272,21.11,22.22,38.25,0,110.9,13.19,21.94,353.8
"2009-08-16 00:48:30",1155266,6.959,32.38,1.122,0.238,19.79,108.5278,21.11,22.19,38.22,0,110.9,13.19,21.94,354.4
"2009-08-16 00:49:00",1155267,7.526,32.59,0.918,0.518,19.76,108.5051,21.06,22.16,38.3,0,110.9,13.19,21.88,354.6
"2009-08-16 00:49:30",1155268,7.758,33.07,0.842,0.284,19.72,108.495,21.03,22.14,38.43,0,110.9,13.19,21.86,355.1
"2009-08-16 00:50:00",1155269,7.784,32.28,0.746,0.349,19.69,108.4962,21.03,22.1,38.55,0,110.9,13.19,21.86,354.3
"2009-08-16 00:50:30",1155270,7.969,32.26,0.783,0.285,19.57,108.4719,20.97,22.07,38.79,0,110.9,13.19,21.80,354.3
"2009-08-16 00:51:00",1155271,9.38,34.18,0.907,0.498,19.61,108.4668,20.96,22.04,38.87,0,110.9,13.19,21.78,356.2
"2009-08-16 00:51:30",1155272,10.34,35.5,0.593,0.206,19.63,108.4522,20.92,22.03,39,0,110.9,13.19,21.74,357.5
"2009-08-16 00:52:00",1155273,10.58,36.34,0.595,0.173,19.63,108.4345,20.87,21.98,39.08,0,110.9,13.19,21.70,358.3
"2009-08-16 00:52:30",1155274,10.55,39.11,2.895,0.829,19.38,108.4225,20.84,21.95,40.72,0,110.9,13.19,21.67,1.1
"2009-08-16 00:53:00",1155275,10.68,43.62,3.278,0.599,19.19,108.4011,20.79,21.91,42.01,0,110.9,13.19,21.61,5.6
"2009-08-16 00:53:30",1155276,9.59,42.9,5.56,0.543,18.38,108.3845,20.75,21.87,41.77,0,110.9,13.19,21.57,4.9
"2009-08-16 00:54:00",1155277,10.28,34.37,3.759,1.319,18.77,108.3631,20.69,21.82,42.48,0,110.9,13.19,21.52,356.4
"2009-08-16 00:54:30",1155278,13.23,41.07,2.606,0.711,18.08,108.321,20.58,21.76,40.44,0,110.9,13.19,21.41,3.1
"2009-08-16 00:55:00",1155279,12.65,38.67,2.318,0.374,18.56,108.2678,20.45,21.69,41.11,0,110.9,13.19,21.27,0.7
"2009-08-16 00:55:30",1155280,12.68,42.38,2.068,0.295,18.77,108.2141,20.31,21.59,41.09,0,110.9,13.19,21.13,4.4
"2009-08-16 00:56:00",1155281,12,40.62,2.641,0.317,18.96,108.1607,20.17,21.51,41.31,0,110.9,13.19,20.99,2.6
"2009-08-16 00:56:30",1155282,11.13,38.92,1.351,0.451,19.08,108.1199,20.07,21.41,42.18,0,110.9,13.19,20.89,0.9
"2009-08-16 00:57:00",1155283,9.93,38.05,1.847,0.494,19.28,108.0884,19.99,21.32,42.53,0,110.9,13.2,20.81,0.0
"2009-08-16 00:57:30",1155284,9.19,36.17,1.385,0.734,19.17,108.0603,19.91,21.22,42.59,0,110.9,13.2,20.74,358.2
"2009-08-16 00:58:00",1155285,8.22,35.48,1.679,0.775,18.87,108.0311,19.84,21.16,42.62,0,110.9,13.2,20.66,357.5
"2009-08-16 00:58:30",1155286,8.67,34.79,1.211,0.537,18.46,108.0134,19.79,21.09,41.97,0,110.9,13.2,20.62,356.8
"2009-08-16 00:59:00",1155287,8.27,34.55,1.492,0.549,18.5,107.9892,19.73,21.03,41.87,0,110.9,13.2,20.55,356.5
"2009-08-16 00:59:30",1155288,7.475,33.72,1.212,0.488,18.49,107.9625,19.66,20.96,41.92,0,110.9,13.2,20.48,355.7
"2009-08-16 01:00:00",1155289,8.15,35.09,0.818,0.28,18.5,107.9369,19.6,20.88,42.11,0,110.9,13.2,20.42,357.1
"2009-08-16 01:00:30",1155290,7.644,34.68,0.957,0.309,18.7,107.9156,19.54,20.82,42.31,0,110.9,13.2,20.36,356.7
"2009-08-16 01:01:00",1155291,7.252,35.12,1.16,0.428,18.89,107.8963,19.49,20.77,42.55,0,110.9,13.2,20.31,357.1
"2009-08-16 01:01:30",1155292,6.287,33.5,1.603,0.544,19.02,107.8716,19.43,20.72,42.82,0,110.9,13.2,20.25,355.5
"2009-08-16 01:02:00",1155293,5.52,31.54,1.758,0.548,19.08,107.8631,19.41,20.67,43.17,0,110.9,13.2,20.23,353.5
"2009-08-16 01:02:30",1155294,5,30.82,1.669,0.381,19.07,107.8602,19.4,20.62,43.75,0,110.9,13.2,20.22,352.8
"2009-08-16 01:03:00",1155295,5.381,32.18,1.506,0.303,19.14,107.8364,19.34,20.58,44.13,0,110.9,13.2,20.16,354.2
"2009-08-16 01:03:30",1155296,5.02,30.99,1.76,0.502,19.38,107.8381,19.34,20.55,44.4,0,110.9,13.2,20.16,353.0
"2009-08-16 01:04:00",1155297,4.676,30.5,1.308,0.335,19.23,107.8397,19.35,20.52,44.41,0,110.9,13.2,20.17,352.5
"2009-08-16 01:04:30",1155298,4.911,30.9,1.725,0.37,19.14,107.8476,19.37,20.49,44.54,0,110.9,13.2,20.19,352.9
"2009-08-16 01:05:00",1155299,5.5,32.7,1.879,0.604,19.03,107.8536,19.38,20.47,44.17,0,110.9,13.2,20.20,354.7
"2009-08-16 01:05:30",1155300,5.987,32.16,2.084,0.617,19.14,107.8539,19.38,20.45,43.85,0,110.9,13.21,20.20,354.2
"2009-08-16 01:06:00",1155301,5.059,28.15,1.366,0.205,19.07,107.854,19.39,20.44,43.75,0,110.9,13.21,20.20,350.1
"2009-08-16 01:06:30",1155302,5.094,29.16,1.323,0.161,19.08,107.8515,19.38,20.43,43.62,0,110.8,13.21,20.20,351.2
"2009-08-16 01:07:00",1155303,5.112,29.95,1.218,0.186,19.04,107.8475,19.37,20.41,43.43,0,110.8,13.21,20.19,352.0
"2009-08-16 01:07:30",1155304,5.37,29.78,1.37,0.266,18.63,107.8447,19.36,20.39,43.21,0,110.8,13.21,20.18,351.8
"2009-08-16 01:08:00",1155305,6.473,27.82,1.57,0.407,18.2,107.8316,19.33,20.37,42.3,0,110.8,13.2,20.15,349.8
"2009-08-16 01:08:30",1155306,7.342,29.42,1.25,0.48,17.63,107.8299,19.32,20.36,40.79,0,110.8,13.2,20.14,351.4
"2009-08-16 01:09:00",1155307,9.39,27.58,1.86,0.701,16.09,107.7916,19.23,20.31,40.45,0,110.8,13.2,20.04,349.6
"2009-08-16 01:09:30",1155308,10.05,26.74,1.673,0.596,15.99,107.7301,19.07,20.27,41.2,0,110.8,13.2,19.89,348.7
"2009-08-16 01:10:00",1155309,10.5,31.44,6.422,1.266,17.49,107.6372,18.83,20.26,42.5,0,110.8,13.16,19.65,353.4
"2009-08-16 01:10:30",1155310,11.28,39.46,6.663,1.782,19.87,107.5315,18.56,20.34,43.16,0,110.8,13.16,19.37,1.5
"2009-08-16 01:11:00",1155311,11.94,39.96,5.238,0.737,21.28,107.4131,18.25,20.22,42.69,0,110.8,13.16,19.07,2.0
"2009-08-16 01:11:30",1155312,10.39,33.36,6.709,1.553,19.15,107.3057,17.98,19.73,42.22,0,110.8,13.16,18.79,355.4
"2009-08-16 01:12:00",1155313,9.25,32.27,6.839,1.316,19.38,107.2148,17.75,19.6,42.8,0,110.8,13.16,18.56,354.3
"2009-08-16 01:12:30",1155314,8.68,31.92,7.551,1.195,20.3,107.1383,17.55,19.41,43.8,0,110.8,13.16,18.36,353.9
"2009-08-16 01:13:00",1155315,7.311,26.67,1.458,0.569,18,107.0865,17.42,19.09,44.31,0,110.8,13.17,18.23,348.7
"2009-08-16 01:13:30",1155316,6.978,25.69,1.273,0.471,18.5,107.0569,17.34,18.94,44.89,0,110.8,13.21,18.15,347.7
"2009-08-16 01:14:00",1155317,7.334,26.5,1.607,0.541,18.1,107.0176,17.24,18.8,45.01,0,110.8,13.21,18.05,348.5
"2009-08-16 01:14:30",1155318,7.894,25.16,0.772,0.506,17.98,106.9819,17.15,18.68,44.53,0,110.8,13.21,17.96,347.2
"2009-08-16 01:15:00",1155319,8.18,25.27,1.449,0.507,17.88,106.9452,17.05,18.56,44.41,0,110.8,13.22,17.87,347.3
"2009-08-16 01:15:30",1155320,9.16,26.98,6.59,0.898,19.13,106.9095,16.96,18.62,44.93,0,110.8,13.19,17.77,349.0
"2009-08-16 01:16:00",1155321,8.29,28.71,5.123,1.07,18.49,106.8782,16.88,18.43,45.37,0,110.8,13.19,17.69,350.7
"2009-08-16 01:16:30",1155322,7.615,26.95,1.265,0.259,17.57,106.8535,16.82,18.26,45.76,0,110.8,13.22,17.63,349.0
"2009-08-16 01:17:00",1155323,7.442,26.06,1.376,0.364,17.52,106.8251,16.75,18.17,46.32,0,110.8,13.23,17.56,348.1
"2009-08-16 01:17:30",1155324,6.974,28.12,1.428,0.206,17.67,106.8138,16.72,18.08,46.75,0,110.7,13.23,17.53,350.1
"2009-08-16 01:18:00",1155325,8.11,32.46,1.051,0.546,17.94,106.788,16.65,18.02,46.69,0,110.7,13.23,17.46,354.5
"2009-08-16 01:18:30",1155326,8.64,33.75,1.499,0.607,17.98,106.7911,16.66,17.97,46.98,0,110.7,13.23,17.47,355.8
"2009-08-16 01:19:00",1155327,9.41,34.59,1.023,0.422,17.83,106.7826,16.64,17.91,47.48,0,110.7,13.23,17.45,356.6
"2009-08-16 01:19:30",1155328,10.13,35.66,1.965,0.901,17.3,106.7647,16.59,17.87,48.15,0,110.7,13.23,17.40,357.7
"2009-08-16 01:20:00",1155329,11.33,41.88,3.768,0.302,16.69,106.7729,16.61,17.83,48.46,0,110.7,13.24,17.42,3.9
"2009-08-16 01:20:30",1155330,11.34,54.08,4.443,1.252,16.51,106.7505,16.56,17.85,48.93,0,110.7,13.2,17.37,16.1
"2009-08-16 01:21:00",1155331,12.39,65.92,6.512,1.399,18.82,106.724,16.49,17.87,49.59,0,110.7,13.2,17.30,27.9
"2009-08-16 01:21:30",1155332,13.37,74.55,5.076,0.919,20.07,106.6864,16.39,17.93,50.23,0,110.7,13.2,17.20,36.6
"2009-08-16 01:22:00",1155333,12.98,72.83,6.56,1.154,19.4,106.6453,16.29,17.9,50.57,0,110.7,13.2,17.10,34.8
"2009-08-16 01:22:30",1155334,12.23,57.49,8.12,1.033,17.66,106.6019,16.17,17.72,49.53,0,110.7,13.2,16.98,19.5
"2009-08-16 01:23:00",1155335,11.62,47.63,0.817,0.175,16.66,106.5625,16.07,17.44,48.75,0,110.7,13.24,16.88,9.6
"2009-08-16 01:23:30",1155336,11.59,50.31,2.04,0.226,15.87,106.5409,16.02,17.31,48.86,0,110.7,13.24,16.83,12.3
"2009-08-16 01:24:00",1155337,10.94,56.42,2.487,0.247,15.2,106.5183,15.96,17.26,49.69,0,110.7,13.24,16.77,18.4
"2009-08-16 01:24:30",1155338,10.74,66.11,3.643,0.185,14.95,106.5077,15.93,17.19,51.23,0,110.7,13.24,16.74,28.1
"2009-08-16 01:25:00",1155339,11.25,73.85,1.365,0.373,14.97,106.4834,15.87,17.15,52.74,0,110.7,13.24,16.68,35.8
"2009-08-16 01:25:30",1155340,11.69,72.82,1.935,0.455,15.2,106.4529,15.79,17.11,53.23,0,110.7,13.24,16.60,34.8
"2009-08-16 01:26:00",1155341,13.76,84.3,7.364,1.426,18.68,106.4117,15.69,17.2,53.75,0,110.7,13.2,16.49,46.3
"2009-08-16 01:26:30",1155342,14.31,85.4,4.74,0.871,19.8,106.373,15.59,17.3,54.22,0,110.7,13.2,16.39,47.4
"2009-08-16 01:27:00",1155343,13.63,88.6,6.412,1.234,19.21,106.3202,15.45,17.18,54.66,0,110.7,13.2,16.26,50.6
"2009-08-16 01:27:30",1155344,12.68,77.21,8.85,1.581,16.05,106.27,15.32,16.91,54.84,0,110.7,13.2,16.13,39.2
"2009-08-16 01:28:00",1155345,11.27,68.01,3.885,0.399,13.06,106.2147,15.18,16.63,55.14,0,110.7,13.2,15.99,30.0
"2009-08-16 01:28:30",1155346,10.99,58.24,7.336,0.414,13.15,106.16,15.04,16.5,55.41,0,110.7,13.24,15.85,20.2
"2009-08-16 01:29:00",1155347,9.46,35.68,6.641,1.254,16.68,106.1028,14.9,16.37,53.55,0,110.6,13.24,15.70,357.7
"2009-08-16 01:29:30",1155348,8.6,29.54,7.201,0.922,17.23,106.0754,14.83,16.27,52.91,0,110.6,13.24,15.63,351.5
"2009-08-16 01:30:00",1155349,8.4,29.31,1.474,0.516,17.94,106.0678,14.81,16.15,52.77,0,110.6,13.24,15.61,351.3
"2009-08-16 01:30:30",1155350,10.21,31.84,0.597,0.63,17.82,106.0921,14.87,16.1,52.82,0,110.6,13.25,15.67,353.8
"2009-08-16 01:31:00",1155351,11.44,37.05,1.598,0.386,15.6,106.1278,14.96,16.07,53.29,0,110.6,13.26,15.76,359.0
"2009-08-16 01:31:30",1155352,11.21,39.05,2.495,0.52,15.48,106.1529,15.02,16.08,54.07,0,110.6,13.26,15.83,1.0
"2009-08-16 01:32:00",1155353,10.84,41.97,3.14,0.195,15.37,106.1802,15.09,16.1,54.19,0,110.6,13.26,15.90,4.0
"2009-08-16 01:32:30",1155354,11.31,52.64,3.224,0.446,14.44,106.1824,15.1,16.11,55.21,0,110.6,13.26,15.90,14.6
"2009-08-16 01:33:00",1155355,12.56,64.17,8.34,1.25,16.7,106.1672,15.06,16.2,56.32,0,110.6,13.22,15.87,26.2
"2009-08-16 01:33:30",1155356,13.71,75.77,3.688,0.768,19.05,106.1419,15,16.46,56.89,0,110.6,13.22,15.80,37.8
"2009-08-16 01:34:00",1155357,14.1,72.9,4.369,0.941,19.07,106.1106,14.92,16.42,56.61,0,110.6,13.22,15.72,34.9
"2009-08-16 01:34:30",1155358,13.8,69.38,5.94,0.785,18.66,106.0757,14.83,16.3,55.8,0,110.6,13.22,15.63,31.4
"2009-08-16 01:35:00",1155359,11.1,56.73,0.986,0.181,13.78,106.0403,14.74,15.95,54.92,0,110.6,13.22,15.54,18.7
"2009-08-16 01:35:30",1155360,11.13,57.05,0.966,0.093,13.69,106.0104,14.66,15.89,54.82,0,110.6,13.26,15.46,19.0
"2009-08-16 01:36:00",1155361,11.75,55.03,2.417,0.385,13.83,105.9809,14.58,15.82,55.03,0,110.6,13.26,15.39,17.0
"2009-08-16 01:36:30",1155362,11.14,53.5,1.897,0.583,14.9,105.9522,14.51,15.74,54.96,0,110.6,13.26,15.31,15.5
"2009-08-16 01:37:00",1155363,10.62,51.7,1.168,0.151,15.69,105.9449,14.49,15.69,54.94,0,110.6,13.26,15.29,13.7
"2009-08-16 01:37:30",1155364,10.15,50.02,1.582,0.177,16.27,105.9438,14.49,15.64,55.04,0,110.6,13.26,15.29,12.0
"2009-08-16 01:38:00",1155365,10.3,51.7,2.546,0.217,16.38,105.9522,14.51,15.62,55.18,0,110.6,13.26,15.31,13.7
"2009-08-16 01:38:30",1155366,10.18,50.56,2.134,0.345,16.7,105.9603,14.53,15.59,55.19,0,110.6,13.26,15.33,12.6
"2009-08-16 01:39:00",1155367,9.91,52.36,1.855,0.138,16.45,105.989,14.6,15.6,55.2,0,110.6,13.26,15.41,14.4
"2009-08-16 01:39:30",1155368,9.79,54.31,1.794,0.469,16.33,106.006,14.65,15.6,55.01,0,110.6,13.27,15.45,16.3
"2009-08-16 01:40:00",1155369,8.94,45.59,3.211,0.113,17.88,106.0364,14.73,15.63,54.78,0,110.5,13.27,15.53,7.6
"2009-08-16 01:40:30",1155370,8.73,43.63,0.826,0.092,18.04,106.0698,14.81,15.67,54.31,0,110.5,13.27,15.62,5.6
"2009-08-16 01:41:00",1155371,8.57,44.41,1.023,0.167,18.01,106.1079,14.91,15.7,54.14,0,110.5,13.27,15.71,6.4
"2009-08-16 01:41:30",1155372,8.25,43.88,1.012,0.103,18.52,106.1493,15.02,15.75,53.6,0,110.5,13.26,15.82,5.9
"2009-08-16 01:42:00",1155373,8.36,45.48,0.541,0.097,18.5,106.2011,15.15,15.82,53.08,0,110.5,13.26,15.95,7.5
"2009-08-16 01:42:30",1155374,8.19,45.41,0.529,0.132,18.48,106.2594,15.3,15.91,52.71,0,110.5,13.26,16.10,7.4
"2009-08-16 01:43:00",1155375,8.16,44.26,0.853,0.223,18.13,106.3191,15.45,16.02,52.38,0,110.5,13.26,16.26,6.3
"2009-08-16 01:43:30",1155376,8.05,44.62,0.572,0.116,18.24,106.3822,15.61,16.12,52.06,0,110.5,13.26,16.42,6.6
"2009-08-16 01:44:00",1155377,8.07,44.5,0.51,0.079,18.14,106.443,15.77,16.25,51.67,0,110.5,13.26,16.57,6.5
"2009-08-16 01:44:30",1155378,8.34,46.96,2.73,0.288,17.16,106.5036,15.92,16.36,51.09,0,110.6,13.26,16.73,9.0
"2009-08-16 01:45:00",1155379,9.12,53.53,2.573,0.198,16.12,106.5498,16.04,16.5,50.43,0,110.6,13.26,16.85,15.5
"2009-08-16 01:45:30",1155380,9.77,53.92,3.717,0.543,15.54,106.585,16.13,16.6,49.94,0,110.6,13.26,16.94,15.9
"2009-08-16 01:46:00",1155381,9.72,54.62,1.226,0.384,15.63,106.5901,16.14,16.7,49.4,0,110.6,13.26,16.95,16.6
"2009-08-16 01:46:30",1155382,9.41,51.52,2.648,0.337,16.1,106.5901,16.14,16.77,48.97,0,110.6,13.27,16.95,13.5
"2009-08-16 01:47:00",1155383,9.38,50.91,1.353,0.264,15.8,106.5892,16.14,16.83,48.71,0,110.6,13.27,16.95,12.9
"2009-08-16 01:47:30",1155384,8.74,50.26,0.97,0.257,16.43,106.5622,16.07,16.84,48.53,0,110.6,13.28,16.88,12.3